Time,TemperatureF,DewpointF,PressureIn,WindDirection,WindDirectionDegrees,WindSpeedMPH,WindSpeedGustMPH,Humidity,HourlyPrecipIn,Conditions,Clouds,dailyrainin,SoftwareType,DateUTC
2013-01-06 14:03:00,24.0,-99.9,-100.00,SW,228,20.0,32.0,-999,-99.99,,,-99.99,,2013-01-06 21:03:00,
2013-01-06 14:12:00,24.0,-99.9,-100.00,SW,228,20.0,32.0,-999,-99.99,,,-99.99,,2013-01-06 21:12:00,
2013-01-06 14:22:00,23.0,-99.9,-100.00,SW,232,20.0,26.0,-999,-99.99,,,-99.99,,2013-01-06 21:22:00,
2013-01-06 14:33:00,23.0,-99.9,-100.00,SW,232,20.0,26.0,-999,-99.99,,,-99.99,,2013-01-06 21:33:00,
2013-01-06 14:43:00,23.0,-99.9,-100.00,SW,232,20.0,26.0,-999,-99.99,,,-99.99,,2013-01-06 21:43:00,
2013-01-06 14:53:00,22.0,-99.9,-100.00,WSW,239,18.0,26.0,-999,-99.99,,,-99.99,,2013-01-06 21:53:00,
2013-01-06 15:02:00,21.0,-99.9,-100.00,SW,228,16.0,29.0,-999,-99.99,,,-99.99,,2013-01-06 22:02:00,
2013-01-06 15:12:00,21.0,-99.9,-100.00,SW,228,16.0,29.0,-999,-99.99,,,-99.99,,2013-01-06 22:12:00,
2013-01-06 15:23:00,20.0,-99.9,-100.00,SW,228,16.0,29.0,-999,-99.99,,,-99.99,,2013-01-06 22:23:00,
2013-01-06 15:33:00,20.0,-99.9,-100.00,SW,232,13.0,22.0,-999,-99.99,,,-99.99,,2013-01-06 22:33:00,
2013-01-06 15:43:00,20.0,-99.9,-100.00,SW,232,13.0,22.0,-999,-99.99,,,-99.99,,2013-01-06 22:43:00,
2013-01-06 15:53:00,20.0,-99.9,-100.00,WSW,248,13.0,22.0,-999,-99.99,,,-99.99,,2013-01-06 22:53:00,
2013-01-06 16:02:00,20.0,-99.9,-100.00,SW,232,14.0,21.0,-999,-99.99,,,-99.99,,2013-01-06 23:02:00,
2013-01-06 16:13:00,20.0,-99.9,-100.00,SW,232,14.0,21.0,-999,-99.99,,,-99.99,,2013-01-06 23:13:00,
2013-01-06 16:22:00,19.0,-99.9,-100.00,SW,231,17.0,28.0,-999,-99.99,,,-99.99,,2013-01-06 23:22:00,
2013-01-06 16:33:00,19.0,-99.9,-100.00,SW,233,17.0,26.0,-999,-99.99,,,-99.99,,2013-01-06 23:33:00,
2013-01-06 16:43:00,19.0,-99.9,-100.00,SW,233,17.0,26.0,-999,-99.99,,,-99.99,,2013-01-06 23:43:00,
2013-01-06 16:53:00,18.0,-99.9,-100.00,WSW,238,16.0,22.0,-999,-99.99,,,-99.99,,2013-01-06 23:53:00,
2013-01-06 17:03:00,18.0,-99.9,-100.00,SW,228,15.0,22.0,-999,-99.99,,,-99.99,,2013-01-07 00:03:00,
2013-01-06 17:12:00,18.0,-99.9,-100.00,SW,228,15.0,22.0,-999,-99.99,,,-99.99,,2013-01-07 00:12:00,
2013-01-06 17:23:00,18.0,-99.9,-100.00,SW,231,16.0,21.0,-999,-99.99,,,-99.99,,2013-01-07 00:23:00,
2013-01-06 17:33:00,18.0,-99.9,-100.00,SW,226,17.0,25.0,-999,-99.99,,,-99.99,,2013-01-07 00:33:00,
2013-01-06 17:43:00,18.0,-99.9,-100.00,SW,226,17.0,25.0,-999,-99.99,,,-99.99,,2013-01-07 00:43:00,
2013-01-06 17:53:00,17.0,-99.9,-100.00,SW,223,18.0,28.0,-999,-99.99,,,-99.99,,2013-01-07 00:53:00,
2013-01-06 18:03:00,17.0,-99.9,-100.00,SW,233,19.0,28.0,-999,-99.99,,,-99.99,,2013-01-07 01:03:00,
2013-01-06 18:12:00,17.0,-99.9,-100.00,SW,233,19.0,28.0,-999,-99.99,,,-99.99,,2013-01-07 01:12:00,
2013-01-06 18:23:00,17.0,-99.9,-100.00,SW,225,21.0,28.0,-999,-99.99,,,-99.99,,2013-01-07 01:23:00,
2013-01-06 18:32:00,16.0,-99.9,-100.00,WSW,238,18.0,25.0,-999,-99.99,,,-99.99,,2013-01-07 01:32:00,
2013-01-06 18:43:00,16.0,-99.9,-100.00,WSW,238,18.0,25.0,-999,-99.99,,,-99.99,,2013-01-07 01:43:00,
2013-01-06 18:53:00,15.0,-99.9,-100.00,WSW,243,20.0,25.0,-999,-99.99,,,-99.99,,2013-01-07 01:53:00,
2013-01-06 19:02:00,14.0,-99.9,-100.00,WSW,248,20.0,24.0,-999,-99.99,,,-99.99,,2013-01-07 02:02:00,
2013-01-06 19:12:00,14.0,-99.9,-100.00,WSW,248,20.0,24.0,-999,-99.99,,,-99.99,,2013-01-07 02:12:00,
2013-01-06 19:23:00,14.0,-99.9,-100.00,WSW,253,21.0,24.0,-999,-99.99,,,-99.99,,2013-01-07 02:23:00,
2013-01-06 19:33:00,14.0,-99.9,-100.00,WSW,247,21.0,24.0,-999,-99.99,,,-99.99,,2013-01-07 02:33:00,
2013-01-06 19:43:00,14.0,-99.9,-100.00,WSW,247,21.0,24.0,-999,-99.99,,,-99.99,,2013-01-07 02:43:00,
2013-01-06 19:53:00,14.0,-99.9,-100.00,WSW,248,19.0,22.0,-999,-99.99,,,-99.99,,2013-01-07 02:53:00,
2013-01-06 20:03:00,14.0,-99.9,-100.00,West,260,19.0,24.0,-999,-99.99,,,-99.99,,2013-01-07 03:03:00,
2013-01-06 20:12:00,14.0,-99.9,-100.00,West,260,19.0,24.0,-999,-99.99,,,-99.99,,2013-01-07 03:12:00,
2013-01-06 20:23:00,14.0,-99.9,-100.00,WSW,255,20.0,22.0,-999,-99.99,,,-99.99,,2013-01-07 03:23:00,
2013-01-06 20:33:00,13.0,-99.9,-100.00,WSW,254,19.0,22.0,-999,-99.99,,,-99.99,,2013-01-07 03:33:00,
2013-01-06 20:43:00,13.0,-99.9,-100.00,WSW,254,19.0,22.0,-999,-99.99,,,-99.99,,2013-01-07 03:43:00,
2013-01-06 20:53:00,13.0,-99.9,-100.00,WSW,257,17.0,21.0,-999,-99.99,,,-99.99,,2013-01-07 03:53:00,
2013-01-06 21:02:00,12.0,-99.9,-100.00,West,261,16.0,19.0,-999,-99.99,,,-99.99,,2013-01-07 04:02:00,
2013-01-06 21:13:00,14.0,-99.9,-100.00,WSW,253,16.0,21.0,-999,-99.99,,,-99.99,,2013-01-07 04:13:00,
2013-01-06 21:22:00,14.0,-99.9,-100.00,WSW,253,16.0,21.0,-999,-99.99,,,-99.99,,2013-01-07 04:22:00,
2013-01-06 21:33:00,13.0,-99.9,-100.00,West,259,15.0,19.0,-999,-99.99,,,-99.99,,2013-01-07 04:33:00,
2013-01-06 21:43:00,13.0,-99.9,-100.00,West,259,15.0,19.0,-999,-99.99,,,-99.99,,2013-01-07 04:43:00,
2013-01-06 21:53:00,13.0,-99.9,-100.00,WSW,254,16.0,19.0,-999,-99.99,,,-99.99,,2013-01-07 04:53:00,
2013-01-06 22:03:00,13.0,-99.9,-100.00,WSW,249,16.0,21.0,-999,-99.99,,,-99.99,,2013-01-07 05:03:00,
2013-01-06 22:12:00,13.0,-99.9,-100.00,WSW,249,16.0,21.0,-999,-99.99,,,-99.99,,2013-01-07 05:12:00,
2013-01-06 22:23:00,13.0,-99.9,-100.00,WSW,251,15.0,19.0,-999,-99.99,,,-99.99,,2013-01-07 05:23:00,
2013-01-06 22:33:00,12.0,-99.9,-100.00,WSW,248,15.0,21.0,-999,-99.99,,,-99.99,,2013-01-07 05:33:00,
2013-01-06 22:43:00,12.0,-99.9,-100.00,WSW,248,15.0,21.0,-999,-99.99,,,-99.99,,2013-01-07 05:43:00,
2013-01-06 22:53:00,12.0,-99.9,-100.00,WSW,252,17.0,21.0,-999,-99.99,,,-99.99,,2013-01-07 05:53:00,
2013-01-06 23:02:00,12.0,-99.9,-100.00,WSW,249,18.0,21.0,-999,-99.99,,,-99.99,,2013-01-07 06:02:00,
2013-01-06 23:12:00,12.0,-99.9,-100.00,WSW,249,18.0,21.0,-999,-99.99,,,-99.99,,2013-01-07 06:12:00,
2013-01-06 23:22:00,12.0,-99.9,-100.00,WSW,247,17.0,21.0,-999,-99.99,,,-99.99,,2013-01-07 06:22:00,
2013-01-06 23:33:00,12.0,-99.9,-100.00,WSW,252,17.0,21.0,-999,-99.99,,,-99.99,,2013-01-07 06:33:00,
2013-01-06 23:43:00,12.0,-99.9,-100.00,WSW,252,17.0,21.0,-999,-99.99,,,-99.99,,2013-01-07 06:43:00,
2013-01-06 23:53:00,11.0,-99.9,-100.00,WSW,246,17.0,21.0,-999,-99.99,,,-99.99,,2013-01-07 06:53:00,